Location: Москва
(55.7558°N, 37.6173°E)
Time: 03:49:45
(UTC+03:00)

ISS - Visible Passes

Search period start: 19 January 2019 00:00
Search period end: 29 January 2019 00:00
Orbit: 404 x 411 km, 51.6° (Epoch: 19 January)

Date Brightness Start Highest point End Pass type
(mag) Time Alt. Az. Time Alt. Az. Time Alt. Az.
24 Jan -0.7 19:51:49 10° SSW 19:51:51 10° SSW 19:51:51 10° SSW visible
25 Jan -1.7 19:01:01 10° SSW 19:02:43 16° SSE 19:02:43 16° SSE visible
26 Jan -1.4 18:10:40 10° S 18:12:05 12° SE 18:13:31 10° ESE visible
26 Jan -1.5 19:44:57 10° SW 19:46:14 19° SSW 19:46:14 19° SSW visible
27 Jan -2.4 18:53:51 10° SW 18:56:38 25° SSE 18:56:58 25° SSE visible
27 Jan -0.4 20:29:35 10° WSW 20:29:40 10° WSW 20:29:40 10° WSW visible
28 Jan -1.9 18:02:56 10° SSW 18:05:23 19° SSE 18:07:39 11° ESE visible
28 Jan -2.2 19:38:17 10° WSW 19:40:21 29° SW 19:40:21 29° SW visible
